Regional Weather Roundup
Issued by NWS Sioux Falls, SD

Home | Current Version | Previous Version | Text Only | Print | Product List | Glossary On
Versions: 1 2 3 4 5 6 7 8 9 10 11 12 13 14 15 16 17 18 19 20 21 22 23 24 25 26 27 28 29 30 31 32 33 34 35 36 37 38 39 40 41 42 43 44 45 46 47 48 49 50
700
ASUS43 KFSD 022310
RWRFSD

WEATHER ROUNDUP FOR SE SOUTH DAKOTA/SW MINNESOTA/NW IOWA
NATIONAL WEATHER SERVICE SIOUX FALLS SD
500 PM CST FRI DEC 02 2016

NOTE: "FAIR" INDICATES FEW OR NO CLOUDS BELOW 12,000 FEET WITH NO
SIGNIFICANT WEATHER AND OR OBSTRUCTIONS TO VISIBILITY.


SDZ038>040-050-052>070-030000-
SOUTHEAST SOUTH DAKOTA

CITY           SKY/WX    TMP DP  RH WIND       PRES   REMARKS
BROOKINGS      CLOUDY    26  20  77 NW9       30.27S WCI  17
CHAMBERLAIN    CLOUDY    32  31  94 CALM      30.27F
HURON          MIX PCPN  30  26  85 NW5       30.30S WCI  25
MADISON        CLOUDY    27  25  93 NW8       30.27F WCI  18
MITCHELL       CLOUDY    32  26  78 NW5       30.31S WCI  27
SIOUX FALLS    CLOUDY    31  26  82 NW10      30.29S WCI  22
WINNER         CLOUDY    35  26  69 CALM      30.25F
YANKTON        CLOUDY    34  27  75 NW6       30.30R WCI  29
$$

MNZ071-072-080-081-089-090-097-098-030000-
SOUTHWEST MINNESOTA

CITY           SKY/WX    TMP DP  RH WIND       PRES   REMARKS
FAIRMONT       CLOUDY    30  24  78 NW8       30.30S WCI  22
JACKSON        CLOUDY    30  23  74 CALM      30.28S
LUVERNE        CLOUDY    32  23  69 W9        30.29S WCI  24
MARSHALL       CLOUDY    29  23  78 W9        30.30R WCI  20
MONTEVIDEO     CLOUDY    28  28 100 N3        30.32R
PIPESTONE      CLOUDY    28  25  86 NW9       30.27R WCI  20
REDWOOD FALLS  CLOUDY    29  20  69 N6        30.29S WCI  23
TRACY          CLOUDY    30  26  84 NW6       30.29R WCI  24
WINDOM         CLOUDY    30  25  80 CALM      30.28S
WORTHINGTON    CLOUDY    30  25  81 W9        30.28S WCI  22
$$

IAZ001>003-012>014-020>022-031-032-NEZ013-014-SDZ071-030000-
NORTHWEST IOWA

CITY           SKY/WX    TMP DP  RH WIND       PRES   REMARKS
CHEROKEE       CLOUDY    34  30  85 N5        30.29R WCI  30
DENISON        CLOUDY    36  32  87 CALM      30.27S
ESTHERVILLE    CLOUDY    30  24  78 N6        30.28F WCI  24
LE MARS        CLOUDY    36  30  80 NW5       30.31R
ORANGE CITY    CLOUDY    32  28  86 CALM      30.28S
SHELDON        CLOUDY    32  30  93 NW8       30.26F WCI  25
SIOUX CITY     CLOUDY    37  31  78 NW12      30.30S
SPENCER        CLOUDY    32  26  78 NW12      30.28F WCI  23
STORM LAKE     CLOUDY    34  28  80 NW5       30.27S WCI  30
$$

ABBREVIATIONS USED IN REMARKS
   TC - TEMPERATURE IN CELSIUS
  WCI - WIND CHILL INDEX
   HX - HEAT INDEX
  VSB - VISIBILITY





USA.gov is the U.S. government's official web portal to all federal, state and local government web resources and services.